Location: �clusier
(49.9361°N, 2.7869°E)
Time: 05:50:43
(UTC+00:00)

Cosmos 2016 Rocket - Pass Details

Date: 31 October 2021
Orbit: 947 x 1000 km, 83.0° (Epoch: 05 December)

Event Time Altitude Azimuth Distance (km) Brightness Sun altitude
Rises 16:53:36 0° 121° (ESE) 3,639 6.6 -4.8°
Reaches altitude 10° 16:58:25 10° 87° (E) 2,688 5.7 -5.6°
Maximum altitude 16:59:52 11° 73° (ENE) 2,622 5.6 -5.8°
Drops below altitude 10° 17:01:19 10° 59° (ENE) 2,687 5.7 -6.0°
Sets 17:06:06 0° 26° (NNE) 3,632 6.6 -6.8°
